Flag for Belarus Weather past 2 weeks in Barysaw, Belarus

Now
77 °F

Broken clouds.


Feels Like: 78 °F
Forecast: 55 / 79 °F
Wind: 10 mph from Northeast

Location: Minsk

Current Time: Jul 22, 2014 at 2:27:00 PM

Latest Report: Jul 22, 2014 at 1:30 PM


Visibility: N/A

Pressure: 30.01 "Hg

Humidity: 44%

Dew point: 54 °F

Location of BarysawLocation

Historic Weather in Barysaw — Graph

°F

Barysaw temperature yesterday

Maximum temperature yesterday: 72 °F (at 4:30 PM)
Minimum temperature yesterday: 55 °F (at 12:30 AM)
Average temperature yesterday: 63 °F

Past Weeks' High & Low Weather Summary

 TemperatureHumidityPressure
High84 °F (Jul 7, 4:30 PM)100% (Jul 9, 1:00 AM)30.15 "Hg (Jul 9, 1:00 AM)
Low50 °F (Jul 10, 4:00 AM)30% (Jul 8, 2:30 PM)29.71 "Hg (Jul 12, 7:30 PM)
Average67 °F75%29.97 "Hg
* Reported Jul 7 1:00 PM — Jul 22 1:30 PM, Barysaw, Weather by CustomWeather, © 2014

Note: Actual official high and low records may vary slightly from our data, if they occured in-between our weather recording intervals... More about our weather records

Advertising

Barysaw weather history for previous 24 hours

 ConditionsComfort  
Time TempWeatherWind HumidityBarometerVisibility
1:30 PM
Jul 22
77 °FBroken clouds.10 mph44%30.01 "HgN/A
1:00 PM77 °FSunny.10 mph47%30.01 "Hg10 mi
12:30 PM75 °FPassing clouds.8 mph50%30.01 "HgN/A
12:00 PM73 °FPassing clouds.8 mph57%30.01 "HgN/A
11:30 AM72 °FPassing clouds.8 mph61%30.01 "HgN/A
11:00 AM70 °FPassing clouds.8 mph60%30.01 "HgN/A
10:30 AM66 °FSunny.6 mph73%30.01 "Hg10 mi
10:00 AM64 °FSunny.8 mph78%30.01 "Hg10 mi
9:30 AM66 °FSunny.6 mph73%30.01 "Hg10 mi
9:00 AM64 °FSunny.6 mph73%29.98 "Hg10 mi
8:30 AM63 °FSunny.6 mph77%29.98 "Hg10 mi
8:00 AM63 °FSunny.6 mph83%29.98 "Hg10 mi
7:30 AM61 °FSunny.6 mph83%29.98 "Hg10 mi
7:00 AM59 °FSunny.6 mph94%29.98 "Hg10 mi
6:30 AM57 °FSunny.6 mph94%29.98 "Hg10 mi
6:00 AM55 °FClear.3 mph100%29.98 "Hg6 mi
5:30 AM54 °FClear.3 mph100%29.98 "Hg6 mi
5:00 AM55 °FClear.3 mph94%29.98 "Hg6 mi
4:30 AM54 °FClear.3 mph100%29.98 "Hg6 mi
4:00 AM54 °FClear.3 mph100%29.95 "Hg4 mi
3:30 AM54 °FClear.3 mph100%29.95 "Hg10 mi
3:00 AM57 °FClear.1 mph94%29.95 "Hg10 mi
2:30 AM57 °FClear.3 mph94%29.95 "Hg10 mi
1:30 AM57 °FClear.6 mph94%29.98 "Hg10 mi
1:00 AM55 °FClear.3 mph94%29.95 "Hg10 mi
12:30 AM55 °FClear.No wind94%29.95 "Hg10 mi
11:30 PM
Jul 21
59 °FClear.6 mph88%29.95 "Hg10 mi
11:00 PM59 °FClear.3 mph88%29.95 "Hg10 mi
10:30 PM61 °FClear.6 mph77%29.92 "Hg10 mi
10:00 PM61 °FSunny.8 mph77%29.92 "Hg10 mi
9:30 PM61 °FSunny.6 mph83%29.92 "Hg10 mi
9:00 PM63 °FSunny.8 mph73%29.92 "Hg10 mi
8:30 PM64 °FSunny.6 mph68%29.92 "Hg10 mi
8:00 PM68 °FSunny.6 mph60%29.92 "Hg10 mi
7:30 PM72 °FSunny.10 mph50%29.92 "Hg10 mi
7:00 PM72 °FBroken clouds.10 mph50%29.89 "HgN/A
6:30 PM70 °FBroken clouds.6 mph69%29.89 "HgN/A
6:00 PM72 °FBroken clouds.10 mph61%29.89 "HgN/A
5:30 PM72 °FBroken clouds.13 mph61%29.89 "HgN/A
5:00 PM70 °FBroken clouds.10 mph64%29.89 "HgN/A
4:30 PM72 °FBroken clouds.10 mph61%29.89 "HgN/A
4:00 PM70 °FBroken clouds.13 mph64%29.89 "HgN/A
3:30 PM70 °FBroken clouds.8 mph69%29.86 "HgN/A
3:00 PM68 °FBroken clouds.6 mph73%29.89 "HgN/A
2:30 PM66 °FBroken clouds.8 mph78%29.89 "HgN/A
2:00 PM66 °FBroken clouds.8 mph73%29.89 "HgN/A
Weather by CustomWeather, © 2014

See weather overviewHow to use our weather pages